Location: Treviso
(45.6669°N, 12.2430°E)
Time: 03:26:42
(UTC+01:00)

ISS - Pass Details

Date: 19 February 2024
Orbit: 415 x 423 km, 51.6° (Epoch: 24 February)

Event Time Altitude Azimuth Distance (km) Brightness Sun altitude
Exits shadow 06:00:48 15° 236° (SW) 1,234 -1.8 -12.4°
Maximum altitude 06:03:30 80° 150° (SSE) 434 -3.7 -11.9°
Drops below altitude 10° 06:06:55 10° 63° (ENE) 1,515 0.0 -11.3°
Sets 06:09:01 0° 62° (ENE) 2,383 1.1 -10.9°
